This is the latest recevied weather packets stored in our database for station/object W8DRH-13. If no packets are shown the sender has not sent any weather packets the latest 10 day(s).
| Time | Temp. | Humidity | Pressure | Rain* | Wind** | Luminosity | Snow |
|---|---|---|---|---|---|---|---|
| 1778156851 | 7.22° C | 72% | 1011.6 hPa | 0 mm | - | 102 W/m² | - |
| 1778156547 | 7.22° C | 72% | 1011.8 hPa | 0 mm | - | 97 W/m² | - |
| 1778156243 | 6.67° C | 73% | 1011.9 hPa | 0 mm | - | 91 W/m² | - |
| 1778155939 | 6.67° C | 73% | 1011.8 hPa | 0 mm | - | 83 W/m² | - |
| 1778155635 | 6.67° C | 73% | 1011.6 hPa | 0 mm | - | 90 W/m² | - |
| 1778155333 | 6.67° C | 73% | 1011.7 hPa | 0 mm | - | 81 W/m² | - |
| 1778155028 | 6.67° C | 73% | 1011.6 hPa | 0 mm | - | 85 W/m² | - |
| 1778154724 | 6.67° C | 74% | 1011.6 hPa | 0 mm | - | 98 W/m² | - |
| 1778154420 | 6.67° C | 74% | 1011.6 hPa | 0 mm | - | 102 W/m² | - |
| 1778154118 | 6.67° C | 74% | 1012 hPa | 0 mm | - | 78 W/m² | - |
| 1778153815 | 6.11° C | 75% | 1011.6 hPa | 0 mm | - | 58 W/m² | - |
| 1778153512 | 6.11° C | 76% | 1011.6 hPa | 0 mm | - | 47 W/m² | - |
| 1778153210 | 6.11° C | 75% | 1011.5 hPa | 0 mm | - | 38 W/m² | - |
| 1778152906 | 6.11° C | 76% | 1011.6 hPa | 0 mm | - | 34 W/m² | - |
| 1778152604 | 6.11° C | 76% | 1011.7 hPa | 0 mm | - | 30 W/m² | - |
| 1778152300 | 5.56° C | 77% | 1011.4 hPa | 0 mm | - | 26 W/m² | - |
| 1778151996 | 5.56° C | 77% | 1011.1 hPa | 0 mm | - | 24 W/m² | - |
| 1778151693 | 5.56° C | 78% | 1011.3 hPa | 0 mm | - | 21 W/m² | - |
| 1778151390 | 5.56° C | 78% | 1011.3 hPa | 0 mm | - | 18 W/m² | - |
| 1778151086 | 5.56° C | 78% | 1011.1 hPa | 0 mm | - | 15 W/m² | - |
| 1778150783 | 5.56° C | 78% | 1011 hPa | 0 mm | - | 12 W/m² | - |
| 1778150480 | 5.56° C | 78% | 1010.9 hPa | 0 mm | - | 9 W/m² | - |
| 1778150176 | 5.56° C | 79% | 1011 hPa | 0 mm | - | 6 W/m² | - |
| 1778149873 | 5.56° C | 79% | 1011 hPa | 0 mm | - | 4 W/m² | - |
| 1778149569 | 5.56° C | 79% | 1011 hPa | 0 mm | - | 2 W/m² | - |
* Rain latest hour (hover to see other rain measurements)
** Current wind speed in m/s (hover to see current wind gust speed)